AirNav   Everest Fuels
 
 1370 users online  

NY40 Gentzke Aeronautical Park Airport
Holland, New York, USA

GOING TO HOLLAND?


FAA INFORMATION EFFECTIVE 25 FEBRUARY 2021

Location

FAA Identifier: NY40
Lat/Long: 42-36-38.2200N 078-35-44.0860W
42-36.637000N 078-35.734767W
42.6106167,-78.5955794
(estimated)
Elevation: 1750 ft. / 533 m (estimated)
Variation: 10W (1985)
From city: 4 miles SW of HOLLAND, NY
Time zone: UTC -5 (UTC -4 during Daylight Saving Time)
Zip code: 14080

Airport Operations

Airport use: Private use. Permission required prior to landing
Activation date: 11/1988
Control tower: no
ARTCC: CLEVELAND CENTER
FSS: BUFFALO FLIGHT SERVICE STATION
Attendance: UNATNDD
Wind indicator: yes
Segmented circle: no

Nearby radio navigation aids

VOR radial/distance  VOR name  Freq  Var
BUFr181/19.2BUFFALO VOR/DME116.4008W
JHWr050/34.4JAMESTOWN VOR/DME114.7007W

Airport Services

Runway Information

Runway E/W

Dimensions: 2000 x 100 ft. / 610 x 30 m
Surface: turf
RUNWAY E  RUNWAY W
Traffic pattern: leftleft
Obstructions: pline50 ft. trees, 500 ft. from runway

Airport Ownership and Management from official FAA records

Ownership: Privately-owned
Owner: GLENN D. GENTZKE
10661 CRUMP RD
HOLLAND, NY 14080
Phone 716 592-2023
Manager: GLENN D. GENTZKE
10661 CRUMP RD
HOLLAND, NY 14080
Phone 716 592-2023

Airport Operational Statistics

Aircraft based on the field: 3
Single engine airplanes: 3
    

Additional Remarks

FOR CD CTC CLEVELAND ARTCC AT 440-774-0490.

Instrument Procedures

There are no published instrument procedures at NY40.

Some nearby airports with instrument procedures:

9G0 - Buffalo Airfield (16 nm N)
KBUF - Buffalo Niagara International Airport (21 nm N)
KOLE - Cattaraugus County-Olean Airport (24 nm SE)
9G3 - Akron Airport/Jesson Field (25 nm N)
KDKK - Chautauqua County/Dunkirk Airport (31 nm W)
 
Loc | Ops | Rwys | IFR | FBO | Links
Com | Nav | Svcs | Stats | Notes
Area around NY40 (Gentzke Aeronautical Park Airport)
 
Road maps at: MapQuest Bing Google
 
Aerial photo
No photo
 
Sectional chart

 
Airport distance calculator
Flying to Gentzke Aeronautical Park Airport? Find the distance to fly.

From to NY40

Sunrise and sunset
Times for 05-Mar-2021
 Local
(UTC-5)
 Zulu
(UTC)
Morning civil twilight06:1611:16
Sunrise06:4511:45
Sunset18:0723:07
Evening civil twilight18:3623:36

Current date and time
Zulu (UTC)  05-Mar-2021 16:55:46
Local (UTC-5)  05-Mar-2021 11:55:46
 
METAR
KBUF 
20nm N 
051554Z 28017KT 10SM FEW035 M03/M13 A3008 RMK AO2 SLP198 T10331133 $
KOLE 
25nm SE 
051635Z AUTO 28008G16KT 250V020 10SM CLR M06/M16 A2997 RMK AO2
KDKK 
31nm W 
051553Z AUTO 30013KT 10SM SCT035 M03/M11 A3015 RMK AO2 SLP219 T10281111
KGVQ 
32nm NE 
051556Z AUTO 32019KT 10SM SCT029 SCT036 M05/M12 A3002 RMK AO2 PK WND 32026/1525 SLP182 T10501117 FZRANO
CWPC 
33nm NW 
051600Z AUTO 31017G22KT M04/M14 RMK AO1 PK WND 32027/1541 SLP210 T10381139 56017
KIAG 
34nm NW 
051553Z 31017G22KT 10SM CLR M04/M13 A3009 RMK AO2 SLP209 T10391128
KDSV 
39nm E 
051554Z AUTO 31011G24KT 10SM FEW040 M03/M14 A3005 RMK AO2 SLP193 T10331139
TAF
KBUF 
20nm N 
051126Z 0512/0612 30008KT P6SM SCT035 FM051400 29014G22KT P6SM SCT035 FM051800 28018G28KT P6SM SCT050 FM060200 29014G22KT P6SM BKN050 FM060500 30012KT 4SM -SN OVC025
NOTAMs
Click for the latest NOTAMs
NOTAMs are issued by the DoD/FAA and will open in a separate window not controlled by AirNav.

 

 
 

Would you like to see your business listed on this page?

 If your business provides an interesting product or service to pilots, flight crews, aircraft, or users of the Gentzke Aeronautical Park Airport, you should consider listing it here.  To start the listing process, click on the button below
 
Add a business
 

Other Pages about Gentzke Aeronautical Park Airport

Update a link
 
Copyright © AirNav, LLC. All rights reserved. Privacy Policy  Contact